Temperature
12 12 11 11 11 10 10 9 9 9 8 7 6 6 5 4 3 3 2 2 1 1 0 -0 -1 -1 -2 -2 -3 -4 -5 -6 -5 -5 -5 -6 -6 -7 -6 -7 -7 -7 -7
12 11 11 10 10 9 9 9 8 8 7 6 5 5 4 3 3 2 1 1 1 0 -0 -1 -2 -2 -2 -3 -4 -5 -6 -6 -7 -6 -6 -7 -7 -7 -7 -7 -7 -7 -7
11 11 10 10 9 9 9 8 8 7 6 5 4 4 3 2 2 1 1 1 0 -0 -1 -2 -3 -3 -4 -5 -6 -7 -7 -7 -7 -7 -7 -7 -7 -7 -7 -7 -7 -7 -8
11 10 9 9 9 8 8 8 7 6 5 4 3 3 2 1 1 1 0 -0 -1 -1 -2 -3 -3 -4 -5 -6 -7 -7 -7 -8 -8 -8 -7 -7 -7 -7 -7 -7 -8 -8 -8
10 9 9 9 8 8 7 6 5 4 4 3 2 2 1 1 0 -0 -1 -1 -2 -2 -3 -4 -5 -5 -6 -7 -8 -8 -8 -8 -8 -8 -7 -7 -8 -8 -8 -8 -8 -9 -9
9 9 8 8 7 7 6 5 4 3 3 2 1 1 0 0 -0 -1 -1 -2 -3 -3 -4 -5 -6 -7 -7 -8 -8 -9 -9 -8 -8 -8 -8 -8 -8 -8 -8 -9 -9 -9 -9
8 8 8 7 7 6 5 4 3 2 2 1 0 0 -0 -0 -1 -1 -2 -2 -3 -4 -5 -6 -7 -7 -8 -9 -9 -9 -9 -8 -8 -9 -9 -9 -9 -9 -9 -9 -9 -9 -9
8 7 7 6 5 4 3 3 2 1 1 0 -0 -1 -1 -1 -1 -2 -2 -3 -4 -5 -6 -7 -8 -8 -9 -9 -9 -9 -9 -9 -9 -9 -9 -9 -9 -9 -9 -9 -10 -10 -10
7 6 6 5 4 3 2 1 1 0 -0 -1 -1 -1 -1 -1 -2 -2 -3 -4 -6 -6 -7 -8 -9 -9 -9 -10 -9 -9 -9 -9 -9 -10 -10 -9 -9 -9 -9 -10 -10 -10 -10
6 5 4 3 2 2 1 1 -0 -1 -1 -1 -1 -1 -2 -2 -3 -3 -4 -6 -7 -8 -8 -8 -9 -9 -9 -9 -9 -10 -10 -10 -10 -10 -9 -9 -9 -8 -9 -10 -10 -10 -11
4 3 3 2 1 1 0 -0 -1 -1 -1 -1 -2 -2 -3 -3 -3 -4 -5 -7 -8 -9 -9 -9 -9 -10 -10 -10 -10 -10 -10 -10 -10 -10 -9 -8 -8 -9 -9 -8 -9 -9 -10
3 2 1 1 0 -0 -1 -1 -1 -2 -2 -2 -2 -3 -3 -4 -4 -5 -6 -8 -9 -9 -9 -9 -10 -10 -10 -9 -9 -9 -9 -10 -10 -9 -9 -9 -9 -8 -8 -7 -7 -8 -8
2 1 0 -0 -1 -1 -1 -2 -2 -2 -3 -3 -3 -3 -4 -4 -5 -6 -7 -9 -9 -10 -10 -10 -10 -10 -10 -9 -9 -9 -9 -9 -9 -10 -10 -9 -8 -8 -8 -8 -8 -8 -8
1 0 -1 -1 -1 -2 -2 -2 -3 -3 -3 -4 -4 -4 -5 -6 -7 -8 -9 -9 -10 -10 -10 -10 -10 -9 -9 -9 -9 -9 -9 -9 -10 -10 -9 -8 -8 -8 -8 -8 -8 -8 -8
-0 -1 -1 -2 -2 -2 -3 -3 -3 -3 -4 -4 -5 -6 -7 -8 -8 -9 -10 -10 -10 -10 -10 -10 -10 -10 -10 -9 -9 -9 -9 -9 -9 -9 -9 -9 -9 -9 -8 -8 -8 -8 -9
-1 -1 -2 -2 -2 -3 -3 -3 -4 -4 -5 -5 -6 -7 -7 -9 -9 -10 -10 -10 -10 -10 -10 -10 -10 -10 -10 -10 -10 -9 -8 -8 -8 -8 -8 -9 -9 -9 -8 -8 -8 -9 -9
-1 -2 -2 -3 -3 -3 -3 -4 -4 -4 -5 -6 -6 -7 -8 -9 -9 -10 -10 -9 -10 -10 -10 -10 -10 -10 -10 -10 -10 -9 -9 -8 -8 -8 -8 -8 -9 -9 -8 -8 -8 -8 -9
-2 -2 -3 -3 -3 -4 -4 -4 -5 -5 -5 -6 -7 -8 -8 -8 -9 -9 -10 -9 -9 -10 -10 -10 -10 -10 -10 -10 -10 -9 -9 -8 -8 -8 -8 -8 -8 -8 -8 -8 -8 -8 -9
-3 -3 -3 -4 -4 -4 -5 -5 -6 -6 -7 -8 -8 -8 -8 -8 -9 -9 -10 -10 -10 -10 -10 -10 -10 -10 -10 -10 -10 -9 -9 -8 -8 -8 -8 -8 -8 -8 -8 -8 -8 -8 -8
-3 -4 -4 -4 -5 -5 -6 -6 -7 -7 -8 -9 -9 -9 -9 -9 -10 -10 -10 -10 -10 -10 -10 -10 -10 -10 -10 -10 -9 -9 -8 -8 -8 -8 -8 -8 -8 -8 -8 -8 -8 -8 -8
-4 -4 -5 -5 -5 -6 -6 -7 -8 -8 -9 -9 -9 -10 -10 -11 -10 -10 -10 -10 -10 -10 -10 -10 -10 -10 -10 -9 -9 -8 -8 -8 -8 -8 -8 -8 -7 -7 -7 -7 -7 -8 -8
-4 -5 -5 -6 -6 -7 -8 -8 -9 -9 -10 -10 -10 -10 -10 -10 -10 -11 -11 -10 -10 -10 -10 -10 -10 -10 -9 -9 -9 -8 -8 -8 -8 -8 -8 -7 -7 -7 -7 -7 -7 -7 -8
-5 -5 -6 -6 -7 -8 -8 -9 -9 -10 -10 -10 -10 -10 -10 -10 -11 -11 -11 -10 -10 -10 -10 -10 -10 -9 -9 -9 -8 -8 -8 -8 -8 -7 -7 -7 -7 -7 -7 -7 -7 -7 -7
-5 -6 -6 -7 -8 -8 -9 -9 -10 -10 -10 -10 -11 -11 -11 -11 -11 -11 -11 -10 -10 -10 -10 -10 -9 -9 -8 -8 -8 -8 -7 -7 -7 -7 -7 -7 -7 -7 -7 -7 -7 -7 -7
-6 -7 -7 -8 -8 -9 -9 -10 -10 -10 -11 -11 -11 -11 -11 -11 -11 -11 -11 -10 -10 -10 -9 -9 -9 -8 -8 -8 -7 -7 -7 -7 -7 -7 -7 -7 -7 -7 -7 -7 -7 -7 -7
-7 -7 -8 -8 -9 -9 -10 -10 -10 -11 -11 -11 -11 -11 -11 -11 -11 -11 -11 -10 -10 -9 -9 -9 -8 -8 -8 -7 -7 -7 -7 -7 -7 -7 -7 -7 -7 -7 -7 -7 -7 -7 -7
Wind_Speed
19 17 17 16 16 16 15 15 15 14 13 11 10 8 6 5 3 2 2 2 4 5 6 7 9 10 9 9 9 10 11 13 17 18 16 17 20 20 19 21 22 22 23
18 18 17 18 17 16 16 15 14 13 11 10 9 7 5 4 2 1 2 3 5 6 7 8 9 9 10 10 9 11 12 13 16 21 19 18 21 21 20 20 18 20 21
18 19 18 18 18 17 16 15 14 12 11 9 7 6 4 3 1 2 4 5 6 8 8 9 10 11 11 11 12 12 12 13 15 18 20 18 18 17 20 20 21 18 19
17 19 19 18 17 17 16 14 13 11 10 8 6 5 3 1 1 3 5 7 8 9 9 10 11 12 12 14 13 14 15 16 17 17 18 18 18 19 18 18 18 17 17
18 18 18 17 17 16 15 14 12 10 8 7 5 3 2 1 2 5 7 8 9 10 10 11 11 13 16 15 14 16 17 16 16 17 17 18 18 18 18 17 18 18 19
18 18 18 17 17 16 14 13 11 9 7 5 4 2 1 2 5 7 9 9 9 10 11 12 12 14 15 19 21 22 22 20 19 18 17 19 22 21 18 17 18 19 20
18 18 17 17 16 15 13 12 10 8 6 4 3 1 1 3 6 9 10 10 10 10 11 12 11 12 17 15 19 22 22 24 22 20 21 21 21 20 20 22 20 21 21
18 17 16 16 15 13 12 10 8 6 5 3 2 1 2 4 7 10 12 10 10 11 12 13 14 15 15 18 19 19 18 18 19 17 18 20 20 21 20 21 21 20 20
17 16 15 15 14 12 11 9 7 5 4 2 0 2 4 5 7 10 12 10 9 12 12 13 14 15 19 22 20 19 19 17 18 21 23 25 28 28 22 15 16 16 18
16 15 14 13 12 11 10 8 5 4 3 1 1 2 4 6 8 11 13 9 10 11 12 13 16 17 21 24 19 18 19 18 18 19 20 20 19 19 20 15 13 14 16
15 14 13 11 11 10 8 6 5 3 1 1 2 3 4 6 8 11 13 10 11 12 13 12 12 19 23 24 22 17 18 20 18 17 16 15 14 13 13 13 12 12 14
14 13 12 11 9 7 7 5 4 2 1 2 4 5 4 5 7 11 14 14 15 13 13 12 14 22 24 23 18 18 22 20 13 13 13 14 13 13 13 15 16 16 15
14 13 11 10 8 6 5 4 2 1 2 3 5 6 6 6 8 12 14 17 18 13 13 18 21 22 20 16 17 20 18 12 11 12 13 14 13 14 15 14 16 15 17
14 12 10 8 7 5 4 2 1 1 3 4 5 6 7 8 8 9 11 12 14 13 13 17 20 18 15 16 16 13 11 11 12 12 13 14 14 14 14 13 14 14 13
12 10 8 6 5 4 3 1 1 1 3 6 6 7 8 9 11 17 15 12 12 13 15 13 11 10 11 11 11 12 11 12 12 12 13 14 14 14 14 13 12 13 14
10 8 6 5 4 2 1 1 1 3 5 7 8 9 9 12 17 17 18 19 19 19 14 10 10 10 11 12 13 14 13 13 12 13 13 13 13 14 14 14 13 13 14
9 7 5 4 3 2 1 3 4 3 4 6 7 10 12 15 16 17 17 18 17 15 9 9 10 10 11 12 12 13 14 14 13 13 13 13 13 13 14 14 13 13 13
8 6 4 3 2 0 2 3 4 6 7 7 7 10 12 14 16 16 16 15 10 9 8 9 10 11 12 12 13 13 14 14 13 13 13 13 13 13 13 14 13 15 15
6 4 3 2 1 1 2 4 5 6 7 8 8 9 12 15 15 14 13 9 9 9 9 10 10 11 12 13 13 13 14 14 14 14 14 14 13 13 13 14 14 18 17
5 4 2 1 1 2 3 4 5 6 7 8 8 9 10 12 10 11 10 9 9 10 10 11 11 12 12 13 13 13 13 14 15 13 13 14 13 13 14 16 15 14 14
3 3 2 2 2 3 4 5 6 6 7 8 9 10 14 11 10 11 10 10 10 10 11 11 12 13 12 12 12 14 15 14 14 14 14 14 14 14 14 14 14 14 13
3 2 2 2 3 4 5 5 6 7 8 9 9 11 15 10 9 10 10 10 10 10 11 11 12 12 12 12 13 13 14 15 14 14 14 14 15 15 14 13 13 12 12
2 2 1 2 3 5 5 5 6 7 8 9 9 10 10 10 10 10 11 11 11 11 11 11 12 13 13 12 12 13 14 14 15 16 16 16 15 14 12 12 13 13 12
2 1 2 3 4 5 5 6 6 7 8 9 9 10 10 10 11 12 11 11 11 12 11 11 12 16 20 16 14 14 14 16 17 16 20 16 13 11 11 11 11 12 11
1 2 3 4 5 5 6 6 7 7 8 8 9 10 10 10 11 11 11 11 12 12 14 14 12 14 17 20 19 18 22 28 26 17 13 10 11 11 11 11 10 10 10
2 3 4 4 5 5 6 7 7 8 9 9 9 9 10 10 10 11 11 11 11 12 14 13 15 18 21 19 20 24 28 28 25 20 11 9 10 9 11 9 10 9 9
Wind_Direction
148 141 143 142 142 140 136 135 135 136 140 141 144 147 149 154 163 184 237 285 300 303 302 303 303 302 298 296 294 289 286 285 287 293 297 301 300 298 297 297 296 295 293
141 138 138 138 137 133 131 132 133 134 136 138 143 146 147 154 173 231 290 301 302 302 302 303 304 305 301 299 296 293 292 290 290 295 299 300 299 300 299 300 300 296 293
138 135 135 135 133 131 130 130 130 131 132 137 142 143 145 152 195 293 305 305 299 294 294 298 302 303 301 301 299 295 294 292 290 292 296 298 299 300 303 301 299 298 297
135 133 132 131 130 128 128 127 128 130 133 138 138 134 132 136 297 309 308 303 297 290 287 291 297 299 300 301 298 296 296 296 295 293 294 298 300 304 304 304 305 303 300
130 126 126 125 124 124 125 125 126 128 132 136 136 130 109 30 347 326 315 304 297 294 292 293 294 297 297 297 298 299 301 298 295 295 296 300 302 305 306 307 304 304 300
124 123 124 124 124 124 125 127 128 130 134 137 133 119 72 12 339 325 318 305 298 296 298 299 300 298 300 301 300 300 296 293 295 296 298 299 300 302 306 304 303 303 303
121 123 124 124 124 126 128 130 132 136 140 139 128 95 351 353 336 327 318 307 299 298 300 302 304 304 306 303 302 299 296 293 292 293 295 295 298 302 302 301 301 300 298
121 123 125 126 127 129 131 130 133 137 141 140 128 5 331 341 334 322 318 307 300 298 302 304 305 306 307 308 305 302 300 296 294 294 292 292 292 294 296 297 298 295 292
124 126 129 130 131 133 132 132 134 139 140 141 150 333 327 328 328 323 325 313 303 304 305 304 305 303 305 308 308 306 304 302 302 298 293 290 291 295 295 294 292 293 296
125 126 128 130 132 132 129 129 132 137 139 151 306 322 317 319 323 327 326 315 313 313 309 307 305 307 310 312 312 310 307 308 308 304 300 298 296 293 292 286 288 290 294
121 121 122 124 123 123 123 126 133 136 141 318 311 310 306 314 321 325 325 321 317 313 310 308 308 311 311 313 313 307 305 307 306 304 303 301 299 298 298 297 293 287 287
118 118 117 117 116 121 126 129 129 124 324 321 321 322 318 318 314 321 322 318 315 310 307 307 308 311 313 313 311 307 308 310 305 304 302 302 304 305 303 301 295 288 279
119 117 117 116 118 126 131 134 133 75 336 330 326 322 324 324 321 321 319 317 315 311 305 305 307 310 314 311 307 309 311 309 307 305 303 303 303 301 300 299 298 295 291
121 121 124 126 127 127 123 118 99 354 335 327 322 319 319 319 321 324 321 317 315 313 310 308 308 308 307 306 308 311 311 307 307 303 302 302 302 302 302 304 305 308 304
124 126 129 131 131 127 116 85 359 336 319 318 318 316 314 314 317 319 316 314 316 314 315 308 307 312 315 316 316 316 316 314 312 308 305 305 305 306 306 307 305 304 300
129 131 131 130 125 114 87 28 247 294 309 309 310 312 310 306 311 315 316 316 318 319 316 306 310 314 314 316 318 317 317 315 313 310 306 304 305 306 306 306 304 302 301
129 129 126 123 114 89 6 332 321 292 271 292 303 314 313 314 316 317 320 322 320 319 311 310 312 313 313 313 312 310 310 310 310 306 304 304 304 303 303 303 304 303 301
116 114 114 112 107 37 326 322 320 320 319 317 314 313 317 320 320 322 327 326 319 321 315 312 312 312 311 309 308 308 307 308 308 307 305 303 302 301 301 301 301 301 302
112 115 119 120 107 330 323 317 313 310 307 310 314 317 326 324 320 324 331 323 317 316 315 313 311 309 307 305 304 304 303 303 304 304 303 302 302 301 299 299 299 300 302
110 115 115 91 11 336 324 315 311 309 309 311 314 321 327 324 322 325 327 320 315 312 312 311 309 306 304 302 301 302 303 303 304 303 302 302 301 300 298 299 299 301 303
115 107 77 30 357 333 318 312 311 310 311 312 313 317 323 320 317 316 317 316 314 311 310 308 306 303 300 299 299 300 301 301 301 301 300 300 301 301 299 297 298 301 305
93 72 38 0 332 321 316 314 310 309 312 312 313 316 321 320 314 313 314 313 311 308 306 303 300 297 296 296 297 299 299 299 299 300 299 299 299 298 298 299 304 311 316
69 52 5 336 325 318 312 310 311 310 310 312 314 317 319 318 317 316 313 312 311 308 305 301 297 295 296 296 296 294 292 293 294 294 294 295 296 299 304 310 315 320 323
56 10 339 328 321 315 314 312 310 311 312 313 314 315 315 316 315 313 312 309 307 304 302 300 295 294 297 301 301 299 294 291 292 290 290 294 305 315 318 320 322 326 325
16 345 329 321 315 311 310 310 310 312 312 313 314 313 313 313 311 309 307 305 305 303 303 302 297 298 301 305 305 303 301 304 307 311 313 320 321 321 325 327 330 328 329
346 327 316 310 306 307 308 310 311 314 313 312 310 309 309 308 306 305 304 304 306 306 305 304 301 305 307 308 306 307 310 314 321 333 341 330 328 333 340 338 336 335 338
Height
1426 1433 1441 1448 1456 1461 1467 1472 1477 1480 1483 1485 1486 1486 1486 1485 1484 1483 1481 1480 1477 1475 1472 1468 1465 1461 1457 1453 1449 1445 1441 1436 1428 1420 1419 1415 1411 1406 1401 1397 1392 1386 1380
1425 1432 1440 1447 1454 1460 1466 1471 1475 1478 1480 1482 1483 1483 1483 1482 1481 1479 1477 1475 1472 1469 1466 1462 1459 1455 1451 1447 1443 1439 1435 1431 1425 1415 1410 1407 1403 1399 1394 1389 1384 1378 1372
1425 1432 1439 1446 1453 1460 1465 1470 1473 1476 1478 1480 1480 1480 1479 1478 1476 1474 1472 1470 1467 1464 1460 1457 1453 1449 1445 1441 1437 1433 1429 1425 1420 1412 1404 1400 1396 1392 1386 1380 1375 1369 1363
1425 1432 1439 1446 1453 1459 1464 1468 1471 1474 1476 1478 1478 1477 1476 1474 1472 1470 1467 1465 1462 1459 1455 1451 1447 1443 1439 1435 1432 1428 1424 1419 1414 1408 1400 1394 1389 1384 1380 1373 1366 1360 1354
1426 1433 1440 1446 1452 1458 1462 1466 1470 1472 1475 1475 1475 1474 1472 1470 1468 1465 1462 1460 1457 1453 1450 1446 1442 1437 1433 1430 1426 1422 1418 1413 1407 1402 1395 1389 1383 1378 1373 1367 1359 1352 1345
1427 1434 1440 1446 1452 1457 1461 1465 1468 1471 1472 1472 1472 1471 1469 1467 1464 1461 1458 1455 1452 1448 1444 1440 1436 1432 1428 1424 1420 1416 1412 1407 1402 1396 1390 1384 1377 1373 1367 1360 1353 1346 1336
1429 1436 1442 1447 1452 1456 1460 1464 1467 1469 1469 1469 1469 1467 1465 1462 1459 1456 1453 1449 1446 1442 1438 1434 1430 1426 1422 1417 1413 1409 1405 1401 1397 1392 1384 1378 1372 1367 1361 1354 1348 1341 1332
1432 1437 1443 1447 1452 1456 1460 1463 1465 1466 1467 1466 1465 1463 1460 1457 1454 1451 1447 1443 1440 1436 1433 1429 1424 1420 1416 1412 1406 1402 1398 1393 1389 1384 1378 1371 1366 1360 1356 1350 1342 1333 1325
1434 1439 1444 1448 1452 1456 1459 1461 1463 1464 1464 1463 1461 1459 1456 1453 1450 1446 1442 1437 1434 1431 1427 1423 1419 1415 1410 1406 1401 1395 1389 1385 1381 1375 1370 1364 1359 1353 1348 1342 1335 1329 1319
1436 1441 1445 1449 1453 1456 1458 1460 1461 1461 1461 1459 1457 1454 1452 1448 1445 1441 1437 1433 1430 1426 1422 1418 1414 1409 1404 1400 1395 1389 1383 1377 1372 1366 1362 1356 1351 1346 1341 1337 1331 1323 1314
1438 1442 1446 1450 1453 1456 1457 1459 1459 1459 1458 1456 1453 1450 1447 1444 1441 1437 1433 1429 1426 1421 1417 1413 1408 1403 1398 1394 1389 1383 1378 1372 1366 1361 1354 1349 1344 1340 1335 1331 1325 1318 1310
1440 1444 1448 1451 1453 1455 1456 1457 1457 1456 1454 1452 1450 1447 1443 1440 1436 1432 1429 1425 1422 1417 1412 1408 1403 1398 1393 1387 1383 1378 1372 1367 1361 1355 1349 1344 1339 1333 1328 1323 1317 1311 1304
1442 1446 1449 1451 1453 1454 1455 1455 1454 1452 1451 1448 1446 1443 1440 1436 1433 1429 1425 1421 1417 1413 1408 1403 1398 1393 1387 1382 1377 1372 1367 1362 1356 1350 1344 1339 1333 1327 1321 1315 1308 1302 1296
1444 1447 1449 1451 1452 1453 1453 1452 1451 1449 1447 1445 1442 1439 1436 1432 1429 1424 1421 1417 1413 1408 1403 1398 1393 1388 1382 1378 1373 1368 1363 1358 1352 1346 1339 1333 1328 1322 1316 1309 1302 1295 1288
1446 1448 1449 1451 1451 1451 1450 1449 1448 1446 1444 1442 1439 1435 1432 1428 1425 1421 1417 1413 1409 1404 1398 1393 1388 1384 1378 1373 1369 1364 1358 1353 1348 1342 1335 1329 1322 1316 1310 1305 1298 1291 1284
1447 1448 1449 1449 1449 1449 1448 1447 1445 1443 1441 1438 1435 1431 1427 1424 1420 1416 1412 1408 1404 1399 1394 1389 1384 1380 1375 1370 1364 1359 1354 1349 1343 1337 1331 1325 1318 1312 1306 1300 1295 1288 1281
1446 1447 1447 1448 1447 1447 1445 1444 1442 1440 1438 1434 1431 1427 1423 1419 1415 1411 1407 1403 1399 1394 1390 1385 1381 1376 1372 1367 1361 1356 1350 1345 1340 1334 1327 1321 1315 1309 1302 1296 1290 1284 1278
1446 1446 1446 1446 1445 1444 1443 1441 1439 1437 1434 1430 1427 1423 1419 1415 1411 1407 1402 1398 1394 1390 1386 1382 1378 1373 1369 1364 1358 1353 1347 1341 1336 1330 1324 1318 1312 1306 1299 1293 1287 1281 1274
1446 1445 1445 1444 1443 1442 1440 1438 1436 1433 1429 1426 1422 1418 1415 1411 1407 1403 1399 1394 1390 1386 1382 1379 1375 1370 1366 1360 1355 1349 1344 1338 1332 1327 1321 1315 1309 1303 1296 1290 1284 1278 1272
1445 1444 1444 1443 1441 1440 1438 1435 1432 1429 1426 1422 1418 1414 1410 1406 1402 1399 1395 1391 1387 1383 1379 1375 1371 1367 1362 1357 1351 1346 1340 1335 1329 1323 1317 1312 1306 1300 1294 1287 1281 1275 1269
1444 1443 1442 1441 1439 1437 1435 1432 1429 1426 1422 1418 1415 1411 1407 1403 1399 1395 1391 1387 1383 1379 1376 1372 1368 1364 1359 1354 1348 1342 1337 1332 1326 1320 1314 1308 1302 1296 1291 1285 1279 1274 1268
1443 1442 1441 1439 1436 1434 1431 1428 1425 1422 1418 1415 1411 1408 1404 1400 1396 1392 1388 1384 1380 1376 1373 1369 1365 1361 1356 1350 1345 1339 1334 1328 1323 1317 1311 1305 1299 1293 1288 1283 1278 1272 1267
1441 1440 1438 1436 1433 1430 1427 1425 1422 1418 1415 1411 1408 1404 1400 1396 1392 1388 1384 1380 1377 1373 1370 1366 1362 1357 1353 1347 1342 1337 1331 1325 1320 1314 1307 1301 1296 1291 1287 1282 1277 1271 1266
1439 1437 1435 1432 1430 1427 1424 1421 1418 1415 1411 1408 1404 1400 1397 1393 1389 1385 1381 1377 1374 1370 1367 1363 1359 1354 1350 1345 1340 1334 1329 1323 1317 1311 1306 1301 1296 1291 1286 1281 1276 1271 1266
1436 1434 1432 1429 1426 1424 1421 1418 1415 1411 1408 1405 1401 1397 1394 1390 1386 1382 1379 1375 1371 1368 1364 1361 1356 1352 1347 1342 1337 1332 1327 1322 1316 1311 1306 1300 1294 1290 1285 1281 1277 1272 1268
1434 1431 1429 1426 1423 1420 1417 1414 1411 1408 1405 1401 1398 1394 1391 1387 1384 1380 1376 1373 1369 1365 1362 1358 1354 1350 1345 1340 1335 1330 1325 1320 1315 1310 1304 1299 1294 1290 1286 1282 1278 1274 1270